EN

Hourly Weather Altamura

Today, 17 January, Sunday

Time Temperature Precipitation Wind Pressure Humidity
00:00 -2°C° 0 mm 4 mps 723 mmHg 74%
01:00 -2°C° 0 mm 4 mps 723 mmHg 73%
02:00 -3°C° 0 mm 4 mps 722 mmHg 72%
03:00 -2°C° 0 mm 3 mps 722 mmHg 71%
04:00 -2°C° 0 mm 3 mps 722 mmHg 70%
05:00 -2°C° 0 mm 3 mps 722 mmHg 69%
06:00 -2°C° 0 mm 2 mps 722 mmHg 68%
07:00 -2°C° 0 mm 2 mps 722 mmHg 67%
08:00 -1°C° 0 mm 2 mps 722 mmHg 61%
09:00 +2°C° 0 mm 1 mps 722 mmHg 56%
10:00 +3°C° 0 mm 1 mps 722 mmHg 50%
11:00 +3°C° 0 mm 2 mps 722 mmHg 49%
12:00 +4°C° 0 mm 2 mps 722 mmHg 48%
13:00 +3°C° 0 mm 3 mps 721 mmHg 47%
14:00 +3°C° 0 mm 3 mps 721 mmHg 51%
15:00 +2°C° 0 mm 3 mps 720 mmHg 55%
16:00 +2°C° 0 mm 3 mps 720 mmHg 58%
17:00 +2°C° 0.1 mm 2 mps 719 mmHg 68%
18:00 +1°C° 0.1 mm 2 mps 719 mmHg 77%
19:00 -1°C° 0.1 mm 2 mps 719 mmHg 87%
20:00 -1°C° 0 mm 2 mps 719 mmHg 88%
21:00 +1°C° 0 mm 1 mps 720 mmHg 90%
22:00 +1°C° 0 mm 1 mps 720 mmHg 91%
23:00 +1°C° 0 mm 1 mps 720 mmHg 90%

Tomorrow, 18 January, Monday

Time Temperature Precipitation Wind Pressure Humidity
00:00 +1°C° 0 mm 1 mps 721 mmHg 89%
01:00 -1°C° 0 mm 2 mps 721 mmHg 88%
02:00 -2°C° 0.1 mm 2 mps 721 mmHg 89%
03:00 -2°C° 0.1 mm 2 mps 721 mmHg 90%
04:00 -2°C° 0.1 mm 3 mps 721 mmHg 91%
05:00 -2°C° 0.1 mm 3 mps 722 mmHg 91%
06:00 -1°C° 0.1 mm 3 mps 722 mmHg 92%
07:00 -1°C° 0.1 mm 3 mps 723 mmHg 92%
08:00 -1°C° 0.1 mm 4 mps 723 mmHg 86%
09:00 0°C° 0.1 mm 5 mps 724 mmHg 79%
10:00 +1°C° 0.1 mm 5 mps 725 mmHg 72%
11:00 +1°C° 0 mm 6 mps 725 mmHg 67%
12:00 +2°C° 0 mm 6 mps 725 mmHg 62%
13:00 +2°C° 0 mm 7 mps 725 mmHg 57%
14:00 +2°C° 0 mm 6 mps 725 mmHg 57%
15:00 +1°C° 0 mm 5 mps 726 mmHg 58%
16:00 +1°C° 0 mm 5 mps 726 mmHg 59%
17:00 0°C° 0 mm 4 mps 726 mmHg 63%
18:00 0°C° 0 mm 3 mps 726 mmHg 67%
19:00 -1°C° 0 mm 3 mps 726 mmHg 70%
20:00 -1°C° 0 mm 3 mps 727 mmHg 74%
21:00 -1°C° 0 mm 3 mps 727 mmHg 77%
22:00 -1°C° 0 mm 3 mps 727 mmHg 80%
23:00 -1°C° 0 mm 3 mps 727 mmHg 80%

Day after tomorrow, 19 January, Tuesday

Time Temperature Precipitation Wind Pressure Humidity
00:00 0°C° 0 mm 3 mps 727 mmHg 80%
01:00 0°C° 0 mm 3 mps 728 mmHg 80%
02:00 0°C° 0 mm 3 mps 728 mmHg 79%
03:00 0°C° 0 mm 3 mps 728 mmHg 79%
04:00 0°C° 0 mm 3 mps 727 mmHg 78%
05:00 +1°C° 0 mm 2 mps 728 mmHg 76%
06:00 +1°C° 0 mm 2 mps 728 mmHg 74%
07:00 +1°C° 0 mm 2 mps 728 mmHg 72%
08:00 +3°C° 0 mm 1 mps 729 mmHg 66%
09:00 +5°C° 0 mm 1 mps 729 mmHg 61%
10:00 +7°C° 0 mm 1 mps 729 mmHg 55%
11:00 +7°C° 0 mm 1 mps 729 mmHg 51%
12:00 +8°C° 0 mm 1 mps 729 mmHg 47%
13:00 +8°C° 0 mm 2 mps 729 mmHg 44%
14:00 +7°C° 0 mm 2 mps 729 mmHg 49%
15:00 +7°C° 0 mm 2 mps 729 mmHg 54%
16:00 +6°C° 0 mm 2 mps 728 mmHg 59%
17:00 +5°C° 0 mm 2 mps 729 mmHg 62%
18:00 +4°C° 0 mm 2 mps 729 mmHg 65%
19:00 +3°C° 0 mm 2 mps 729 mmHg 69%
20:00 +3°C° 0 mm 2 mps 729 mmHg 71%
21:00 +2°C° 0 mm 2 mps 729 mmHg 74%
22:00 +2°C° 0 mm 2 mps 728 mmHg 76%
23:00 +2°C° 0 mm 2 mps 728 mmHg 77%

20 January, Wednesday

Time Temperature Precipitation Wind Pressure Humidity
00:00 +2°C° 0 mm 2 mps 728 mmHg 78%
01:00 +2°C° 0 mm 2 mps 728 mmHg 80%
02:00 +2°C° 0 mm 2 mps 728 mmHg 80%
03:00 +2°C° 0 mm 2 mps 728 mmHg 79%
04:00 +2°C° 0 mm 2 mps 727 mmHg 79%
05:00 +2°C° 0 mm 2 mps 727 mmHg 79%
06:00 +2°C° 0 mm 2 mps 727 mmHg 79%
07:00 +2°C° 0 mm 2 mps 727 mmHg 78%
08:00 +3°C° 0 mm 2 mps 728 mmHg 75%
09:00 +5°C° 0 mm 2 mps 728 mmHg 72%
10:00 +6°C° 0 mm 2 mps 728 mmHg 70%
11:00 +7°C° 0 mm 2 mps 728 mmHg 68%
12:00 +8°C° 0 mm 3 mps 728 mmHg 67%
13:00 +9°C° 0 mm 3 mps 728 mmHg 66%
14:00 +9°C° 0 mm 3 mps 727 mmHg 68%
15:00 +8°C° 0 mm 3 mps 727 mmHg 71%
16:00 +8°C° 0 mm 3 mps 726 mmHg 74%
17:00 +7°C° 0 mm 3 mps 726 mmHg 77%
18:00 +5°C° 0 mm 3 mps 726 mmHg 80%
19:00 +4°C° 0 mm 3 mps 726 mmHg 83%
20:00 +4°C° 0 mm 3 mps 726 mmHg 84%
21:00 +4°C° 0 mm 3 mps 726 mmHg 84%
22:00 +3°C° 0 mm 3 mps 725 mmHg 85%
23:00 +3°C° 0 mm 3 mps 725 mmHg 84%

21 January, Thursday

Time Temperature Precipitation Wind Pressure Humidity
00:00 +3°C° 0 mm 3 mps 725 mmHg 84%
01:00 +3°C° 0 mm 3 mps 725 mmHg 84%
02:00 +4°C° 0 mm 2 mps 724 mmHg 84%
03:00 +4°C° 0 mm 2 mps 724 mmHg 83%
04:00 +4°C° 0 mm 2 mps 724 mmHg 83%
05:00 +4°C° 0 mm 2 mps 724 mmHg 82%
06:00 +4°C° 0 mm 2 mps 724 mmHg 80%
07:00 +4°C° 0 mm 2 mps 724 mmHg 79%
08:00 +5°C° 0 mm 2 mps 724 mmHg 75%
09:00 +7°C° 0 mm 2 mps 724 mmHg 70%
10:00 +8°C° 0 mm 3 mps 724 mmHg 66%
11:00 +9°C° 0 mm 2 mps 724 mmHg 65%
12:00 +10°C° 0 mm 2 mps 724 mmHg 63%
13:00 +12°C° 0 mm 2 mps 724 mmHg 61%
14:00 +10°C° 0 mm 2 mps 723 mmHg 65%
15:00 +9°C° 0 mm 2 mps 723 mmHg 69%
16:00 +9°C° 0 mm 2 mps 723 mmHg 73%
17:00 +8°C° 0 mm 2 mps 723 mmHg 73%
18:00 +8°C° 0 mm 2 mps 723 mmHg 74%
19:00 +8°C° 0 mm 2 mps 723 mmHg 74%
20:00 +8°C° 0 mm 3 mps 723 mmHg 75%
21:00 +7°C° 0 mm 3 mps 723 mmHg 75%
22:00 +6°C° 0 mm 4 mps 723 mmHg 75%
23:00 +6°C° 0 mm 4 mps 723 mmHg 76%

22 January, Friday

Time Temperature Precipitation Wind Pressure Humidity
00:00 +6°C° 0 mm 4 mps 723 mmHg 76%
01:00 +6°C° 0 mm 4 mps 722 mmHg 77%
02:00 +6°C° 0 mm 4 mps 722 mmHg 78%
03:00 +6°C° 0 mm 4 mps 722 mmHg 79%
04:00 +6°C° 0 mm 4 mps 721 mmHg 80%
05:00 +6°C° 0 mm 4 mps 721 mmHg 80%
06:00 +5°C° 0 mm 4 mps 721 mmHg 81%
07:00 +5°C° 0 mm 4 mps 721 mmHg 82%
08:00 +7°C° 0 mm 4 mps 721 mmHg 78%
09:00 +8°C° 0 mm 5 mps 721 mmHg 74%
10:00 +10°C° 0 mm 5 mps 721 mmHg 71%
11:00 +10°C° 0 mm 5 mps 721 mmHg 70%
12:00 +10°C° 0 mm 6 mps 720 mmHg 69%
13:00 +11°C° 0 mm 6 mps 720 mmHg 68%
14:00 +10°C° 0 mm 6 mps 720 mmHg 69%
15:00 +10°C° 0 mm 5 mps 719 mmHg 69%
16:00 +10°C° 0 mm 5 mps 719 mmHg 70%
17:00 +9°C° 0 mm 5 mps 718 mmHg 71%
18:00 +9°C° 0 mm 5 mps 718 mmHg 72%
19:00 +8°C° 0 mm 5 mps 717 mmHg 74%
20:00 +8°C° 0 mm 5 mps 717 mmHg 71%
21:00 +8°C° 0 mm 6 mps 717 mmHg 69%
22:00 +8°C° 0 mm 6 mps 716 mmHg 66%
23:00 +8°C° 0 mm 6 mps 716 mmHg 67%
Show more